[[{"header":{"parameterUnit":"m.s-1","parameterCategory":1,"la1":30.2992,"la2":30.254,"lo1":-89.0895,"lo2":-89.0443,"dy":0.0025,"dx":0.0025,"nx":19,"ny":19,"refTime":"2026-04-29T21:00:00:Z","depth":0,"parameterNumber":2,"parameterNumberName":"U-component_of_WINDS"},"data":[0,0,0,-2.6919,-2.6922,-2.7084,-2.7084,-2.7302,-2.7304,0,0,0,0,0,0,0,0,0,0,0,-2.6877,-2.6878,-2.6918,-2.6923,-2.7084,-2.7084,-2.7302,-2.7304,0,0,0,0,0,0,0,0,0,0,0,-2.6876,-2.6878,-2.688,-2.6923,-2.7084,-2.7085,-2.7301,-2.7176,0,0,0,0,0,0,0,0,0,0,-2.7017,-2.6984,-2.6877,-2.688,-2.6924,-2.7084,-2.7085,-2.7169,-2.7183,-2.7233,0,-2.7278,0,-2.7295,-2.7319,-2.732,0,0,0,-2.6918,-2.6972,-2.701,-2.688,-2.6926,-2.7083,-2.701,-2.7177,-2.7193,-2.7252,-2.7281,-2.7289,-2.7298,-2.7321,-2.7322,-2.7622,-2.7623,0,0,-2.691,-2.6909,-2.6999,-2.7021,-2.6995,-2.7005,-2.7015,-2.7186,-2.7219,-2.7282,-2.7294,-2.7302,-2.7322,-2.7324,-2.762,-2.7622,0,0,0,-2.6887,-2.6903,-2.6937,-2.7012,-2.704,-2.701,-2.7021,-2.7211,-2.7222,-2.7296,-2.7304,-2.7323,-2.7326,-2.7619,-2.7621,-2.7701,0,0,0,-2.6881,-2.689,-2.6933,-2.6934,-2.7037,-2.7128,-2.7042,-2.721,-2.723,-2.7303,-2.7323,-2.7328,-2.7617,-2.762,-2.7695,-2.7739,0,0,0,-2.6864,-2.6887,-2.6913,-2.6934,-2.7003,-2.7125,-2.7146,-2.7214,-2.7235,-2.732,-2.7329,-2.7616,-2.7619,-2.769,-2.7731,-2.782,0,0,0,-2.6846,-2.698,-2.6914,-2.7067,-2.7002,-2.7172,-2.7144,-2.7271,-2.7353,-2.7325,-2.7617,-2.7621,-2.7688,-2.7725,-2.7814,-2.7897,-2.793,0,0,-2.7016,-2.7001,-2.7091,-2.7036,-2.7218,-2.7147,-2.7342,-2.7417,-2.7426,-2.7556,-2.7564,-2.7697,-2.773,-2.7819,-2.8115,-2.8142,0,0,0,-2.7145,-2.721,-2.7258,-2.7337,-2.7398,-2.7454,-2.75,-2.7529,-2.7639,-2.7492,-2.7752,-2.7772,-2.7824,-2.7864,-2.7886,-2.7932,-2.7638,-2.7638,-2.7638,-2.7386,-2.7389,-2.754,-2.7563,-2.7639,-2.7686,-2.7749,-2.7795,-2.7775,-2.7837,-2.7877,-2.8056,-2.8102,-2.8119,-2.8167,-2.7918,-2.7918,-2.7919,-2.7919,-2.7636,-2.7731,-2.7702,-2.7838,-2.7841,-2.7956,-2.8006,-2.7989,-2.8097,-2.8026,-2.8072,-2.7996,-2.8148,-2.819,-2.7925,-2.7924,-2.7923,-2.7923,-2.7922,-2.7797,-2.7843,-2.7874,-2.7989,-2.8077,-2.8095,-2.8201,-2.8199,-2.8198,-2.8244,-2.8287,-2.8286,-2.8287,-2.8264,-2.8265,-2.8265,-2.8266,-2.8266,-2.8267,-2.7952,-2.7984,-2.8073,-2.815,-2.8201,-2.8267,-2.8315,-2.8365,-2.8421,-2.8412,-2.8412,-2.8389,-2.8161,-2.8106,-2.8276,-2.8275,-2.8273,-2.8272,-2.8272,-2.8209,-2.8151,-2.8288,-2.8339,-2.8429,-2.8518,-2.8514,-2.8617,-2.8658,-2.871,-2.8677,-2.8508,-2.8493,-2.8475,-2.8429,-2.8674,-2.8674,-2.8674,-2.8674,-2.8347,-2.8338,-2.8479,-2.8561,-2.8641,-2.8652,-2.8809,-2.8847,-2.8878,-2.8905,-2.8868,-2.8806,-2.8788,-2.8785,-2.876,-2.8717,-2.9029,-2.903,-2.903,-2.8507,-2.8506,-2.864,-2.8669,-2.8739,-2.88,-2.8949,-2.9045,-2.9067,-2.9044,-2.8926,-2.8911,-2.8811,-2.8777,-2.8754,-2.8716,-2.8638,0,0]},{"header":{"parameterUnit":"m.s-1","parameterCategory":1,"la1":30.2992,"la2":30.254,"lo1":-89.0895,"lo2":-89.0443,"dy":0.0025,"dx":0.0025,"nx":19,"ny":19,"refTime":"2026-04-29T21:00:00:Z","depth":0,"parameterNumber":3,"parameterNumberName":"V-component_of_WINDS"},"data":[0,0,0,-4.5587,-4.5589,-4.5656,-4.5656,-4.5751,-4.5752,0,0,0,0,0,0,0,0,0,0,0,-4.5575,-4.5576,-4.5587,-4.5589,-4.5656,-4.5656,-4.5751,-4.5752,0,0,0,0,0,0,0,0,0,0,0,-4.5575,-4.5576,-4.5577,-4.5589,-4.5656,-4.5656,-4.575,-4.5696,0,0,0,0,0,0,0,0,0,0,-4.5629,-4.5627,-4.5576,-4.5577,-4.559,-4.5656,-4.5656,-4.5693,-4.5699,-4.5725,0,-4.5752,0,-4.5754,-4.5759,-4.5759,0,0,0,-4.5582,-4.5622,-4.5633,-4.5577,-4.559,-4.5656,-4.5624,-4.5697,-4.5704,-4.5733,-4.5754,-4.5757,-4.5756,-4.576,-4.576,-4.5936,-4.5937,0,0,-4.5579,-4.5591,-4.5628,-4.5638,-4.5631,-4.5622,-4.5626,-4.5701,-4.5722,-4.5754,-4.5759,-4.5757,-4.576,-4.5761,-4.5935,-4.5936,0,0,0,-4.5572,-4.5589,-4.5598,-4.5634,-4.5646,-4.5624,-4.5629,-4.5719,-4.5721,-4.576,-4.5758,-4.5761,-4.5762,-4.5933,-4.5935,-4.6003,0,0,0,-4.557,-4.5585,-4.5596,-4.5605,-4.5645,-4.5684,-4.5646,-4.5716,-4.5724,-4.5758,-4.5761,-4.5763,-4.5932,-4.5934,-4.5999,-4.6033,0,0,0,-4.5568,-4.5585,-4.5598,-4.5605,-4.5635,-4.5682,-4.5688,-4.5717,-4.5724,-4.5759,-4.5764,-4.5931,-4.5934,-4.5995,-4.6026,-4.6082,0,0,0,-4.5569,-4.5657,-4.5599,-4.5696,-4.5634,-4.5725,-4.5688,-4.5754,-4.5793,-4.5762,-4.5932,-4.5935,-4.5993,-4.6022,-4.6078,-4.6131,-4.6155,0,0,-4.5686,-4.5671,-4.5727,-4.5677,-4.5782,-4.5714,-4.5827,-4.585,-4.5841,-4.5904,-4.5908,-4.6,-4.6026,-4.6081,-4.6285,-4.6304,0,0,0,-4.5768,-4.5809,-4.5834,-4.5873,-4.5894,-4.5913,-4.5918,-4.5926,-4.598,-4.5877,-4.6036,-4.605,-4.6082,-4.6107,-4.6123,-4.6149,-4.5947,-4.5947,-4.5947,-4.5952,-4.5937,-4.6028,-4.6021,-4.6059,-4.6063,-4.6091,-4.6103,-4.6076,-4.6114,-4.6132,-4.6257,-4.6287,-4.6299,-4.6326,-4.6159,-4.616,-4.616,-4.616,-4.6121,-4.6175,-4.6138,-4.6213,-4.6196,-4.6258,-4.6265,-4.6243,-4.6297,-4.6242,-4.627,-4.6211,-4.632,-4.6343,-4.6165,-4.6164,-4.6164,-4.6163,-4.6163,-4.6239,-4.6262,-4.6272,-4.6326,-4.6369,-4.6358,-4.6411,-4.6394,-4.6377,-4.6404,-4.6421,-4.6419,-4.6415,-4.6414,-4.6414,-4.6415,-4.6415,-4.6415,-4.6415,-4.6356,-4.6365,-4.6414,-4.6443,-4.6465,-4.6492,-4.6496,-4.6517,-4.6535,-4.6517,-4.6517,-4.6485,-4.6335,-4.6296,-4.6422,-4.6421,-4.642,-4.6419,-4.6419,-4.6532,-4.6489,-4.6564,-4.6587,-4.6619,-4.6662,-4.6639,-4.6682,-4.6696,-4.6723,-4.6686,-4.6577,-4.656,-4.6547,-4.6515,-4.669,-4.669,-4.669,-4.669,-4.663,-4.662,-4.6692,-4.6729,-4.6763,-4.6749,-4.6832,-4.6836,-4.6833,-4.684,-4.6812,-4.6769,-4.6757,-4.6746,-4.6729,-4.6699,-4.6916,-4.6917,-4.6917,-4.6737,-4.6729,-4.6804,-4.6802,-4.6826,-4.6846,-4.6923,-4.6964,-4.6952,-4.6925,-4.6845,-4.6835,-4.6765,-4.6743,-4.6714,-4.6688,-4.6632,0,0]}]]